Preview of NWS' New Version of Forecast
This preview is not operational and should not be used for support decisions.

Regional Weather Roundup (RWR)

Issued by National Weather Service (NWS)

                            
000
ASUS43 KLSX 162307
RWRMO 

WEATHER SUMMARY FOR MISSOURI
NATIONAL WEATHER SERVICE SPRINGFIELD MO
600 PM CDT MON SEP 16 2019

NOTE: "FAIR" INDICATES FEW OR NO CLOUDS BELOW 12,000 FEET WITH NO
       SIGNIFICANT WEATHER AND/OR OBSTRUCTIONS TO VISIBILITY.
       CURRENT SKY AND/OR WEATHER CONDITIONS ARE NOT AVAILABLE FOR
       CHILLICOTHE AND FARMINGTON.

MOZ001>031-035>038-043-044-053-054-170000-
...NORTHERN AND WESTERN MISSOURI...
  
CITY           SKY/WX    TMP DP  RH WIND       PRES   REMARKS
KANSAS CTY INT PTSUNNY   85  76  74 S3        30.02F HX  94           
KANSAS C DTWN  SUNNY     91  65  41 SE7       30.00S HX  93           
LEE'S SUMMIT   SUNNY     87  69  54 S7        30.03F HX  91           
ST JOSEPH      SUNNY     85  72  65 S6        30.00F HX  91           
CHILLICOTHE      N/A     87  76  69 CALM      30.03F HX  97           
KIRKSVILLE     SUNNY     88  70  55 S5        30.05S HX  93           
     
$$
MOZ066>068-077>081-088>096-101>105-170000-
...SOUTHWEST MISSOURI...
  
CITY           SKY/WX    TMP DP  RH WIND       PRES   REMARKS
SPRINGFIELD    PTSUNNY   90  67  46 SW5       30.05R HX  93           
JOPLIN         SUNNY     89  72  56 CALM      30.04S HX  96           
BRANSON        PTSUNNY   91  61  35 SE9       30.07S HX  91           
               
$$
MOZ032>034-039>042-045>050-055>058-069>072-170000-
...CENTRAL MISSOURI...  
  
CITY           SKY/WX    TMP DP  RH WIND       PRES   REMARKS
COLUMBIA       SUNNY     87  73  62 S3        30.05S HX  94           
JEFFERSON CITY SUNNY     91  68  46 E6        30.02F HX  95           
ROLLA          SUNNY     89  67  47 SE3       30.07S HX  92           
SEDALIA        SUNNY     86  71  60 SE3       30.04F HX  91           
WHITEMAN AFB   PTSUNNY   87  73  61 S3        30.00S HX  94           
WARRENSBURG    SUNNY     88  70  55 SE3       30.03S HX  92           
OSAGE BEACH    SUNNY     90  68  48 CALM      30.05S HX  94           
               
$$
MOZ051-052-059>065-170000-
...EAST CENTRAL MISSOURI...
  
CITY           SKY/WX    TMP DP  RH WIND       PRES   REMARKS
ST LOUIS INTL  MOSUNNY   91  69  48 NW6       30.03S HX  96           
SPIRIT OF STL  MOSUNNY   91  75  59 CALM      30.02S HX 101           
ST CHARLES       N/A    N/A N/A N/A MISG      30.01S                  
                   
$$
MOZ072>076-082>087-097>100-106>115-170000-
...SOUTH CENTRAL AND SOUTHEAST MISSOURI...
  
CITY           SKY/WX    TMP DP  RH WIND       PRES   REMARKS
CAPE GIRARDEAU FAIR      94  69  44 CALM      30.00S HX  99           
FARMINGTON     SUNNY     91  68  46 NW6       30.06S HX  95           
POPLAR BLUFF   FAIR      92  68  45 SW3       30.01S HX  96           
WEST PLAINS    SUNNY     89  64  43 SE5       30.08S HX  90           
                                       
$$